Vertical_Velocity
2 -1 -1 -3 -2 -3 -3 -16 22 17 10 1 2 -5 -3 1 0 -3 -2 1 0 5 -0 0 -0 1 2 1 1 -0 2 3 -1 1 -2 -6 1 -4 -5 2 -0 1 -2 -4 1 1 -2 2 1
-1 -0 -0 -2 -4 -3 -1 19 7 1 5 7 1 -4 -7 -1 7 -6 -4 -3 -9 5 5 4 1 4 0 1 1 -2 -3 3 0 0 -1 -1 -3 -2 -4 1 -4 -0 1 -1 -2 2 -3 -0 -0
-3 0 0 -2 1 -8 1 17 10 3 1 0 -4 -3 -4 0 6 2 5 10 -10 -0 -0 4 -1 2 2 2 -1 1 -5 -5 0 0 -1 2 -1 -2 -1 -2 -1 -3 -2 -3 -0 -1 -1 -0 1
-1 -2 0 -1 -4 -6 -1 -3 26 9 1 -1 -11 -6 3 2 -5 -1 5 -4 -3 -1 6 8 0 4 4 3 3 1 2 -1 -1 -1 -2 -2 -3 -3 -1 -3 1 -2 -1 -1 -3 -1 -1 -0 -0
-2 -2 -2 -6 -10 -10 5 37 8 3 -3 -1 6 3 4 1 2 -1 -9 -3 3 -1 0 5 1 5 5 3 2 -1 1 -3 -1 -0 -2 2 -0 -0 -1 -3 -1 1 -3 -3 -1 -1 -2 0 -1
0 -2 -1 -6 -4 12 14 10 31 13 1 2 3 -4 6 5 6 -6 -3 -3 2 4 -2 -1 3 3 2 -0 -0 -2 2 0 -2 -2 0 -2 -2 -1 -1 -2 -3 -4 -2 -2 -1 -1 -0 1 -0
-1 1 -5 -1 -9 -7 4 34 17 16 1 -4 -4 0 3 13 -3 6 -2 -8 -3 2 3 -0 5 7 2 1 1 1 0 -1 0 -1 -2 0 1 -2 -1 -1 -2 -2 -2 -3 -4 -4 -1 1 1
-2 0 -8 -5 -1 25 -3 8 4 4 6 4 -9 -4 13 -2 1 -6 -5 -5 -3 -4 -2 3 2 6 4 3 3 3 4 1 2 0 -2 -2 0 1 -0 -1 0 -0 -3 -1 -1 -5 -3 -0 3
-6 -0 -7 6 3 -1 -2 -0 -5 -3 -4 -1 -3 -8 -6 9 3 -4 -8 4 -2 -2 1 -1 0 3 5 7 3 2 2 -0 -1 2 2 1 -1 -1 -2 0 -1 0 0 1 0 0 -2 -3 2
-1 -2 -6 4 4 -4 -4 -3 2 1 4 1 2 -6 -6 -5 3 4 -7 -4 2 -2 -8 -8 -3 -1 7 3 3 4 2 2 2 3 1 4 4 2 2 -3 -3 -2 2 2 -1 -1 1 -0 1
1 -10 0 3 6 -3 -4 -1 1 -0 -2 2 -1 -1 0 2 -4 -4 -6 -5 -2 3 2 -3 -3 0 -3 1 5 -1 5 3 1 2 -2 0 -3 -3 1 -1 -1 -5 1 2 2 2 -2 -1 2
6 -0 -1 -14 6 -1 -8 -1 -0 -5 4 3 -1 -2 -6 -2 0 0 3 3 12 13 8 12 -0 2 -0 15 -2 5 -8 -1 1 4 4 -0 3 5 1 1 2 -1 -4 1 1 1 -2 -1 2
-4 2 -1 -5 -3 -3 -4 -5 -11 -2 -1 -6 -4 1 -3 -4 -3 -3 -6 -12 -7 -8 -7 -6 -7 -5 -5 -8 15 -4 1 -1 3 2 4 6 4 6 3 5 -0 2 -3 0 6 2 2 -3 0
-1 -2 -5 -6 -2 1 2 -8 -5 5 -5 -3 -1 -3 3 -1 -1 -7 -4 -2 -5 1 6 4 -1 -4 -5 -5 -9 8 15 6 1 0 -4 5 2 -1 8 -0 1 1 -2 -10 7 3 2 2 -2
0 -6 1 1 0 -9 -0 -2 -1 -3 3 -0 -2 9 -0 -5 -5 -3 -2 -2 -4 -8 -3 4 7 5 -4 -11 -2 -4 8 15 0 5 3 -8 -1 -6 5 2 -4 1 2 -9 -7 3 2 1 0
2 0 -1 1 1 2 0 -8 -3 9 12 9 -3 -4 -8 -7 -2 -2 -1 1 -1 -1 -5 -2 -0 3 1 9 0 -9 1 10 5 21 -4 8 1 2 -4 2 -1 4 1 -1 -8 -4 4 4 -1
3 -6 -1 5 9 6 -1 4 9 -6 0 2 -4 -7 -9 -5 -1 -5 -9 -9 -8 -5 -3 -1 -3 -3 5 7 5 4 -3 8 -14 -1 1 5 10 13 3 2 -1 3 5 -3 -2 -1 1 1 5
5 1 4 6 11 21 22 6 -0 3 4 -0 -0 -5 -3 -1 -2 -4 -4 -2 -5 -9 -8 -4 -0 -6 -9 8 11 2 9 3 -0 -7 23 0 2 2 2 2 4 5 -3 0 -5 -1 -3 4 -3
-9 4 2 -6 -8 1 -1 -1 -3 3 2 -0 -4 -3 0 1 -5 -9 -6 -4 -9 -1 -1 -15 1 1 -11 -8 2 7 -5 2 8 9 10 21 29 6 -5 9 -5 -1 -3 3 -2 4 -7 0 2
4 -2 -9 -6 4 6 -1 -2 5 1 -2 -2 -3 -2 -2 -1 -1 -3 -3 -3 -3 -8 -6 3 -5 3 0 -6 -6 -9 8 1 4 10 5 -38 -55 21 0 12 -9 -2 9 5 -3 -0 0 2 -1
0 -7 -7 9 -6 -2 5 -10 -6 0 0 -3 -2 1 -2 -6 -10 -4 -3 -8 -9 -8 -10 -5 -2 -0 -1 -0 -6 -3 -12 2 -1 16 13 3 7 19 19 3 -4 5 -1 -2 -2 3 0 -2 -1
1 7 4 -0 0 -5 9 -4 5 2 -4 -3 1 -0 -2 -5 -2 -3 -5 -5 -6 -6 -5 -4 -2 -3 3 5 -4 -6 -4 -12 2 1 12 16 18 11 8 2 -9 1 4 -0 4 2 3 5 2
-4 8 -4 -3 -4 9 -13 11 12 -2 1 3 1 -0 -1 -3 -7 -6 -9 -9 -5 -6 -3 -6 -4 -1 0 2 -9 -3 -5 -5 -2 -3 1 7 7 -4 17 14 3 -3 1 5 1 -3 -3 -3 2
-3 -3 -4 5 3 6 -7 4 4 2 -2 2 -3 -7 -3 -9 -5 -3 -6 -8 -3 -2 -3 -2 -3 -2 -5 1 1 -8 -5 2 -1 -3 -7 3 8 8 18 -2 4 11 -0 6 7 1 1 1 5
1 -0 -4 -1 4 -10 15 2 1 -3 1 -5 -5 -6 -2 -5 -4 -4 -6 -6 -1 -5 -3 -0 -5 -5 -5 -2 1 1 -5 1 4 4 -14 10 14 -8 14 259 14 -5 18 2 14 11 5 6 4
-10 0 -2 -1 0 -4 0 3 1 -1 0 -2 -4 -2 -8 -5 -3 -4 -7 -4 -7 -7 -2 -4 -3 -2 -2 2 -3 -4 0 1 -0 4 -3 -12 57 -14 34 -70 108 -5 -3 -14 16 12 4 4 -2
-10 12 7 8 -1 3 -0 -2 -3 -2 0 2 1 -2 -5 -3 -2 -4 -3 -3 -5 -4 -4 -4 -3 -4 -5 -3 -2 -3 -0 -4 8 1 1 -4 5 -20 -29 -51 51 6 14 -81 55 -20 25 25 20
1 2 1 1 -1 -0 3 -1 2 -3 -0 1 -4 -2 -3 -2 1 -3 -4 -3 -3 -0 -0 2 -0 -1 -1 -4 1 -5 -7 1 5 16 3 1 -12 13 -1 -23 23 -3 10 -45 151 20 17 4 -8
-3 -5 0 3 0 -3 -2 -4 0 -0 -2 -2 -4 -2 -1 -2 -2 -5 -2 -1 -2 2 -0 4 4 -10 -2 -4 4 3 5 43 8 19 8 12 16 5 -29 -2 8 22 7 3 33 20 -16 2 12
11 -0 9 12 -7 7 1 -5 -2 -2 0 -4 -5 -0 -2 1 -3 -1 -0 -1 -1 2 3 8 -8 -17 10 11 8 1 17 33 18 7 2 -13 29 1 39 1 -19 8 3 -1 10 -17 -5 2 -3
Height
3159 3159 3160 3160 3164 3160 3158 3157 3159 3158 3154 3154 3154 3157 3161 3163 3163 3166 3162 3164 3167 3168 3169 3169 3169 3170 3170 3170 3170 3169 3168 3167 3167 3166 3165 3165 3165 3166 3166 3165 3165 3166 3166 3167 3167 3168 3169 3170 3170
3158 3158 3159 3158 3160 3159 3159 3159 3155 3156 3154 3153 3154 3157 3160 3163 3162 3162 3163 3165 3163 3165 3166 3166 3166 3167 3168 3169 3168 3168 3167 3167 3166 3165 3164 3164 3164 3164 3165 3165 3165 3165 3166 3166 3166 3167 3167 3169 3170
3155 3157 3159 3158 3157 3156 3156 3160 3158 3156 3155 3153 3156 3159 3161 3162 3161 3162 3165 3167 3162 3161 3165 3164 3163 3164 3165 3166 3166 3166 3166 3166 3165 3165 3164 3163 3164 3163 3164 3164 3164 3164 3165 3165 3165 3166 3166 3167 3169
3153 3155 3157 3156 3155 3154 3155 3159 3160 3156 3154 3154 3155 3161 3159 3160 3160 3163 3163 3163 3160 3158 3163 3161 3161 3162 3163 3164 3164 3164 3164 3163 3164 3163 3163 3162 3162 3162 3162 3162 3162 3163 3163 3164 3164 3165 3166 3166 3167
3151 3152 3153 3154 3156 3154 3156 3159 3157 3155 3154 3155 3156 3162 3157 3158 3158 3158 3159 3160 3157 3155 3158 3157 3157 3158 3160 3161 3161 3161 3161 3161 3161 3161 3161 3161 3160 3160 3160 3160 3160 3161 3161 3162 3163 3163 3164 3165 3166
3149 3150 3152 3152 3153 3154 3158 3156 3155 3152 3150 3152 3156 3157 3158 3158 3157 3152 3153 3157 3154 3153 3153 3154 3156 3155 3157 3158 3159 3159 3159 3158 3158 3159 3159 3159 3159 3159 3159 3159 3159 3159 3159 3160 3161 3162 3163 3164 3165
3146 3147 3149 3150 3150 3151 3154 3153 3149 3148 3147 3149 3153 3158 3159 3156 3152 3152 3149 3153 3151 3151 3151 3151 3152 3152 3153 3155 3156 3156 3156 3156 3156 3156 3157 3157 3157 3157 3157 3157 3156 3157 3157 3158 3159 3160 3161 3162 3164
3144 3146 3146 3148 3149 3151 3150 3148 3146 3145 3147 3149 3150 3155 3154 3150 3147 3146 3150 3152 3151 3147 3149 3148 3149 3149 3150 3151 3152 3152 3152 3153 3153 3154 3154 3154 3154 3154 3154 3154 3154 3154 3155 3155 3156 3157 3158 3160 3161
3142 3144 3144 3148 3147 3146 3146 3147 3145 3145 3144 3146 3148 3151 3151 3147 3144 3144 3148 3150 3146 3144 3142 3143 3144 3145 3147 3147 3147 3148 3149 3149 3150 3150 3151 3151 3151 3152 3152 3153 3152 3152 3153 3154 3154 3155 3156 3157 3158
3140 3142 3142 3144 3143 3142 3142 3143 3143 3145 3144 3146 3147 3147 3145 3145 3141 3140 3141 3143 3143 3142 3140 3139 3139 3139 3141 3142 3144 3144 3145 3144 3145 3147 3148 3148 3149 3149 3150 3150 3150 3150 3151 3152 3153 3153 3153 3155 3156
3138 3139 3140 3139 3140 3139 3139 3140 3140 3140 3142 3142 3139 3139 3142 3140 3138 3137 3136 3136 3137 3137 3137 3134 3132 3134 3135 3137 3138 3139 3139 3140 3141 3142 3143 3144 3145 3146 3147 3147 3148 3148 3149 3150 3151 3152 3152 3153 3153
3136 3136 3136 3136 3137 3135 3135 3138 3136 3137 3138 3135 3134 3132 3131 3132 3130 3130 3128 3128 3130 3127 3129 3130 3128 3126 3128 3133 3131 3132 3133 3135 3135 3137 3137 3139 3140 3141 3142 3144 3145 3146 3147 3147 3148 3149 3150 3150 3151
3130 3131 3131 3131 3130 3131 3131 3131 3132 3132 3131 3129 3129 3129 3129 3129 3126 3118 3112 3112 3114 3118 3119 3119 3116 3117 3118 3120 3123 3123 3125 3127 3129 3131 3132 3134 3135 3137 3138 3139 3141 3143 3144 3144 3146 3146 3147 3148 3149
3127 3126 3125 3125 3126 3126 3128 3128 3129 3129 3127 3128 3128 3127 3126 3120 3113 3112 3111 3111 3110 3112 3112 3112 3112 3108 3107 3108 3109 3113 3115 3117 3120 3123 3125 3129 3130 3133 3134 3135 3137 3138 3140 3141 3143 3143 3144 3145 3146
3122 3120 3119 3118 3119 3120 3122 3125 3127 3125 3126 3125 3124 3120 3115 3112 3111 3109 3107 3107 3105 3105 3105 3106 3106 3104 3101 3101 3101 3102 3107 3111 3112 3114 3118 3120 3123 3125 3129 3130 3132 3134 3136 3137 3138 3139 3139 3140 3142
3119 3118 3115 3116 3116 3117 3121 3122 3125 3125 3124 3121 3113 3110 3111 3111 3109 3107 3106 3105 3103 3099 3097 3096 3097 3098 3094 3091 3092 3095 3096 3099 3104 3104 3108 3112 3116 3117 3119 3123 3126 3129 3131 3132 3134 3135 3136 3138 3139
3116 3116 3115 3116 3116 3116 3118 3119 3120 3121 3118 3110 3105 3107 3108 3109 3108 3106 3103 3099 3096 3092 3087 3085 3084 3084 3084 3082 3081 3083 3086 3089 3092 3095 3097 3102 3108 3111 3112 3115 3120 3123 3126 3128 3130 3132 3133 3134 3135
3115 3113 3114 3114 3117 3116 3115 3114 3115 3117 3107 3102 3102 3103 3104 3104 3103 3100 3096 3091 3084 3080 3074 3071 3070 3070 3070 3071 3070 3070 3073 3078 3081 3082 3087 3096 3099 3103 3108 3108 3112 3116 3120 3123 3125 3127 3129 3130 3130
3112 3113 3111 3110 3111 3112 3111 3111 3113 3105 3100 3098 3099 3099 3099 3097 3095 3090 3084 3078 3072 3065 3059 3057 3056 3056 3055 3058 3058 3059 3060 3063 3069 3072 3078 3083 3088 3095 3100 3101 3103 3109 3112 3116 3119 3121 3122 3125 3126
3109 3107 3107 3108 3108 3106 3106 3106 3104 3097 3095 3096 3096 3095 3094 3091 3087 3081 3073 3066 3059 3052 3045 3040 3038 3040 3040 3041 3044 3044 3047 3049 3054 3060 3063 3068 3075 3083 3090 3090 3094 3101 3106 3108 3111 3115 3118 3119 3121
3103 3103 3104 3105 3103 3102 3102 3100 3096 3090 3090 3092 3091 3088 3085 3081 3075 3069 3063 3056 3047 3039 3031 3025 3022 3024 3025 3026 3029 3031 3033 3035 3039 3046 3054 3061 3066 3068 3075 3079 3086 3092 3097 3100 3105 3109 3111 3112 3114
3098 3100 3099 3098 3099 3099 3098 3098 3091 3086 3088 3088 3085 3082 3079 3073 3068 3061 3053 3046 3038 3027 3020 3015 3012 3010 3010 3011 3014 3017 3017 3021 3028 3031 3039 3045 3050 3055 3061 3071 3075 3082 3086 3092 3096 3100 3104 3107 3106
3096 3095 3094 3095 3095 3094 3092 3094 3083 3084 3084 3082 3080 3077 3071 3067 3061 3053 3045 3038 3029 3018 3013 3010 3005 3001 2998 2997 3000 3002 3003 3006 3017 3020 3025 3031 3036 3044 3048 3056 3062 3069 3076 3084 3089 3092 3095 3098 3101
3090 3092 3092 3092 3093 3090 3079 3086 3081 3080 3078 3079 3076 3072 3065 3062 3054 3047 3040 3032 3020 3013 3005 3001 2997 2993 2990 2986 2988 2989 2990 2994 3000 3013 3017 3020 3028 3034 3039 3037 3046 3055 3065 3073 3080 3084 3087 3089 3093
3087 3091 3091 3089 3088 3082 3077 3077 3075 3074 3073 3072 3070 3066 3062 3056 3049 3041 3033 3024 3016 3007 2998 2992 2989 2985 2981 2979 2980 2979 2981 2982 2988 2999 3006 3011 3016 3021 3018 2978 3017 3036 3051 3061 3071 3074 3077 3081 3084
3082 3086 3087 3085 3081 3077 3077 3075 3073 3073 3072 3070 3067 3063 3060 3053 3046 3036 3029 3020 3012 3002 2992 2985 2979 2975 2974 2972 2971 2971 2973 2975 2979 2985 2997 3003 3005 3012 3001 2983 2987 3020 3040 3049 3060 3061 3066 3071 3075
3078 3082 3084 3082 3079 3076 3072 3073 3072 3068 3069 3069 3065 3061 3057 3051 3043 3035 3029 3019 3010 3001 2991 2981 2976 2971 2967 2966 2966 2966 2969 2973 2975 2978 2989 2996 3002 3005 3011 3015 2992 3019 3028 3036 3039 3049 3054 3060 3065
3075 3078 3081 3080 3079 3074 3068 3068 3068 3066 3068 3067 3063 3059 3054 3049 3042 3036 3028 3020 3011 3001 2992 2983 2978 2968 2958 2957 2962 2964 2966 2970 2972 2974 2982 2993 2998 3001 3002 3002 3005 3019 3022 3030 3001 3014 3033 3047 3054
3073 3073 3076 3077 3076 3073 3073 3067 3065 3065 3065 3063 3060 3056 3052 3046 3041 3035 3029 3023 3014 3006 2997 2988 2983 2975 2962 2962 2959 2959 2963 2959 2966 2972 2979 2990 2988 2993 2995 2997 3006 3013 3021 3023 3024 3026 3030 3044 3047
3068 3069 3070 3070 3071 3068 3066 3063 3061 3062 3061 3061 3058 3054 3050 3045 3041 3036 3031 3026 3018 3010 3003 2993 2990 2985 2971 2962 2964 2957 2957 2949 2959 2970 2976 2987 2994 2996 2993 2994 3004 3009 3010 3014 3017 3023 3033 3039 3039